Terug naar catalogus

STARLINK-32914

ActiefCommunicatieVLEO
NORAD 63086·PAYLOAD·🇺🇸 United States

Gelanceerd Feb 23, 2025 vanaf Vandenberg Space Force Base

Loading…

Volgende Passages (komende 24 uur)

TLE

VersSource: CelesTrak SupGP

Epoch: Sep 15, 2026, 02:10 UTC

1 63086C 25037K   26258.09076389 -.00050264  00000+0 -17038-2 0  2582
2 63086  70.0006 235.2636 0003082 267.6964  91.1860 15.30446094    10

Volg STARLINK-32914 in realtime met AllMySat

Download on the App Store